St. Petersburg Airport, FL

10:01 AM EDT on July 21, 2017 (GMT -0400)
Saint Petersburg-Clearwater International

Weather History for KPIE - November, 2012

Change the Weather History Date:

Wednesday, November 14, 2012

  Actual Average Record
Temperature  
Mean Temperature 70 °F -  
Max Temperature 75 °F 77 °F 86 °F (1985)
Min Temperature 64 °F 61 °F 44 °F (1963)
Cooling Degree Days 4    
Growing Degree Days 20 (Base 50)    
Moisture  
Dew Point 64 °F    
Average Humidity 87    
Maximum Humidity 100    
Minimum Humidity 69    
Precipitation  
Precipitation 0.00 in - - ()
Sea Level Pressure  
Sea Level Pressure 30.14 in    
Wind  
Wind Speed 6 mph (NE)    
Max Wind Speed 12 mph    
Max Gust Speed -    
Visibility 10 miles    
Events      
Averages and records for this station are not official NWS values.
T = Trace of Precipitation, MM = Missing Value Source: NWS Daily Summary

Daily Weather History Graph

Daily Weather History Graph

Search for Another Location

Airport or City:

Trip Planner

Search our weather history database for the weather conditions in past years. The results will help you decide how hot, cold, wet, or windy it might be!

Date:

Astronomy

Nov. 14, 2012 Rise Set
Actual Time 6:51 AM EST 5:38 PM EST
Civil Twilight 6:27 AM EST 6:03 PM EST
Nautical Twilight 5:58 AM EST 6:31 PM EST
Astronomical Twilight 5:30 AM EST 6:59 PM EST
Moon 7:35 AM EST (11/14) 6:31 PM EST (11/14)
Length of Visible Light 11h 36m
Length of Day
10h 46m
New Moon, 1% of the Moon is Illuminated
Nov 14
New Moon
Nov 20
First Quarter
Nov 28
Full
Dec 6
Last Quarter
Dec 13
New

Hourly Weather History & Observations

Time (EST) Temp. Dew Point Humidity Pressure Visibility Wind Dir Wind Speed Gust Speed Precip Events Conditions
12:53 AM 66.9 °F 64.9 °F 93% 30.13 in 10.0 mi NNE 4.6 mph - N/A   Clear
1:53 AM 66.9 °F 64.9 °F 93% 30.12 in 10.0 mi NE 3.5 mph - N/A   Clear
2:53 AM 66.9 °F 64.0 °F 90% 30.12 in 10.0 mi NE 3.5 mph - N/A   Clear
3:53 AM 66.9 °F 64.9 °F 93% 30.12 in 10.0 mi North 4.6 mph - N/A   Clear
4:53 AM 66.0 °F 64.0 °F 93% 30.12 in 10.0 mi NNE 5.8 mph - N/A   Clear
5:27 AM 66.2 °F 64.4 °F 94% 30.13 in 10.0 mi NNE 3.5 mph - N/A   Partly Cloudy
5:49 AM 66.2 °F 64.4 °F 94% 30.14 in 10.0 mi NE 5.8 mph - N/A   Mostly Cloudy
5:53 AM 66.0 °F 64.0 °F 93% 30.14 in 10.0 mi NE 6.9 mph - N/A   Mostly Cloudy
6:10 AM 64.4 °F 64.4 °F 100% 30.15 in 3.0 mi NE 5.8 mph - N/A   Overcast
6:53 AM 66.0 °F 64.0 °F 93% 30.15 in 5.0 mi NE 5.8 mph - N/A   Mostly Cloudy
7:00 AM 66.2 °F 64.4 °F 94% 30.16 in 9.0 mi NNE 6.9 mph - N/A   Unknown
7:05 AM 66.2 °F 64.4 °F 94% 30.15 in 10.0 mi NE 9.2 mph - N/A   Mostly Cloudy
7:53 AM 66.0 °F 64.0 °F 93% 30.17 in 7.0 mi NE 11.5 mph - N/A   Overcast
8:53 AM 66.0 °F 64.0 °F 93% 30.19 in 10.0 mi NE 9.2 mph - N/A   Overcast
9:53 AM 66.9 °F 64.9 °F 93% 30.20 in 10.0 mi NNE 8.1 mph - N/A   Overcast
10:53 AM 69.1 °F 64.9 °F 87% 30.19 in 10.0 mi NE 8.1 mph - N/A   Overcast
11:53 AM 70.0 °F 64.9 °F 84% 30.18 in 10.0 mi ENE 6.9 mph - N/A   Overcast
12:35 PM 71.6 °F 64.4 °F 78% 30.16 in 10.0 mi ENE 8.1 mph - N/A   Overcast
12:53 PM 73.0 °F 64.9 °F 76% 30.16 in 10.0 mi NE 6.9 mph - N/A   Overcast
1:53 PM 73.9 °F 64.9 °F 73% 30.14 in 10.0 mi ENE 4.6 mph - N/A   Mostly Cloudy
2:50 PM 75.2 °F 64.4 °F 69% 30.12 in 10.0 mi NNE 4.6 mph - N/A   Scattered Clouds
2:53 PM 75.0 °F 66.0 °F 73% 30.12 in 10.0 mi NNE 5.8 mph - N/A   Scattered Clouds
3:53 PM 75.0 °F 64.9 °F 71% 30.11 in 10.0 mi NNE 6.9 mph - N/A   Clear
4:53 PM 73.0 °F 64.9 °F 76% 30.11 in 10.0 mi NE 6.9 mph - N/A   Clear
5:53 PM 71.1 °F 64.9 °F 81% 30.12 in 10.0 mi NNE 4.6 mph - N/A   Clear
6:53 PM 70.0 °F 64.9 °F 84% 30.13 in 10.0 mi NNE 4.6 mph - N/A   Clear
7:53 PM 70.0 °F 64.0 °F 81% 30.14 in 10.0 mi NNE 8.1 mph - N/A   Clear
8:53 PM 68.0 °F 64.0 °F 87% 30.16 in 10.0 mi NE 6.9 mph - N/A   Clear
9:53 PM 66.9 °F 64.0 °F 90% 30.16 in 10.0 mi ENE 10.4 mph - N/A   Overcast
10:09 PM 66.2 °F 64.4 °F 94% 30.16 in 10.0 mi ENE 11.5 mph - N/A   Overcast
10:53 PM 68.0 °F 64.0 °F 87% 30.15 in 10.0 mi ENE 6.9 mph - N/A   Overcast
11:17 PM 66.2 °F 64.4 °F 94% 30.15 in 10.0 mi NE 4.6 mph - N/A   Scattered Clouds
11:42 PM 66.2 °F 64.4 °F 94% 30.14 in 10.0 mi NE 8.1 mph - N/A   Mostly Cloudy
11:53 PM 68.0 °F 64.0 °F 87% 30.14 in 10.0 mi NE 9.2 mph - N/A   Overcast